AEE6PX LIMC-LGAV

Flight info

Callsign AEE6PX
Flight time 1h 37m
Altitude 37000
Route ROBAS DCT EKDIR DCT NOSTO UN7 NEMES
Aircraft A320/M-SDE3FGHIRWY/LB1

Departure

Time 2026-05-05 08:22
Airport Milan Malpensa International Airport (LIMC)

Arrival

Time 2026-05-05 10:00
Airport Athens Eleftherios Venizelos International Airport (LGAV)
Time Latitude Longitude Altitude Speed Heading
2026-05-05 07:21 45.62551 8.71730 732 ft 0 kts 233°
2026-05-05 08:08 45.62552 8.71733 732 ft 2 kts 234°
2026-05-05 08:09 45.62559 8.71752 732 ft 2 kts 259°
2026-05-05 08:09 45.62559 8.71773 732 ft 2 kts 279°
2026-05-05 08:09 45.62555 8.71794 732 ft 2 kts 293°
2026-05-05 08:09 45.62553 8.71815 732 ft 2 kts 259°
2026-05-05 08:10 45.62558 8.71836 732 ft 2 kts 232°
2026-05-05 08:10 45.62570 8.71850 732 ft 2 kts 204°
2026-05-05 08:10 45.62584 8.71854 732 ft 2 kts 176°
2026-05-05 08:10 45.62595 8.71851 733 ft 0 kts 163°
2026-05-05 08:11 45.62597 8.71851 733 ft 0 kts 165°
2026-05-05 08:12 45.62594 8.71851 732 ft 3 kts 166°
2026-05-05 08:12 45.62523 8.71871 731 ft 17 kts 169°
2026-05-05 08:13 45.62362 8.71915 728 ft 29 kts 169°
2026-05-05 08:13 45.62154 8.71973 724 ft 30 kts 169°
2026-05-05 08:13 45.61951 8.72029 719 ft 29 kts 169°
2026-05-05 08:13 45.61749 8.72086 714 ft 29 kts 169°
2026-05-05 08:14 45.61548 8.72140 709 ft 29 kts 169°
2026-05-05 08:14 45.61350 8.72195 704 ft 29 kts 169°
2026-05-05 08:14 45.61155 8.72250 699 ft 28 kts 168°
2026-05-05 08:14 45.60960 8.72301 696 ft 28 kts 169°
2026-05-05 08:15 45.60772 8.72354 693 ft 27 kts 169°
2026-05-05 08:15 45.60639 8.72496 690 ft 25 kts 99°
2026-05-05 08:15 45.60621 8.72747 690 ft 24 kts 95°
2026-05-05 08:15 45.60603 8.72985 689 ft 23 kts 96°
2026-05-05 08:16 45.60596 8.73214 688 ft 22 kts 69°
2026-05-05 08:16 45.60720 8.73329 689 ft 20 kts 21°
2026-05-05 08:16 45.60847 8.73401 690 ft 19 kts 20°
2026-05-05 08:16 45.60973 8.73396 691 ft 17 kts 349°
2026-05-05 08:17 45.61089 8.73366 693 ft 17 kts 349°
2026-05-05 08:17 45.61219 8.73330 695 ft 19 kts 348°
2026-05-05 08:17 45.61347 8.73293 697 ft 17 kts 349°
2026-05-05 08:17 45.61460 8.73262 699 ft 15 kts 349°
2026-05-05 08:18 45.61560 8.73234 701 ft 12 kts 349°
2026-05-05 08:18 45.61619 8.73286 702 ft 11 kts 77°
2026-05-05 08:18 45.61634 8.73405 701 ft 12 kts 87°
2026-05-05 08:18 45.61599 8.73526 700 ft 13 kts 116°
2026-05-05 08:19 45.61587 8.73595 699 ft 3 kts 92°
2026-05-05 08:19 45.61587 8.73599 699 ft 0 kts 91°
2026-05-05 08:20 45.61587 8.73615 699 ft 6 kts 87°
2026-05-05 08:21 45.61599 8.73710 699 ft 9 kts 76°
2026-05-05 08:21 45.61627 8.73741 700 ft 0 kts 354°
2026-05-05 08:21 45.61628 8.73740 700 ft 0 kts 351°
2026-05-05 08:21 45.61677 8.73729 701 ft 27 kts 350°
2026-05-05 08:22 45.62101 8.73612 710 ft 93 kts 349°
2026-05-05 08:22 45.62921 8.73385 729 ft 146 kts 349°
2026-05-05 08:22 45.63932 8.73116 1209 ft 149 kts 351°
2026-05-05 08:22 45.64958 8.73243 1735 ft 153 kts 21°
2026-05-05 08:23 45.65881 8.73975 2327 ft 156 kts 35°
2026-05-05 08:23 45.66687 8.74995 2826 ft 157 kts 44°
2026-05-05 08:23 45.67440 8.76131 3287 ft 160 kts 45°
2026-05-05 08:23 45.68212 8.77299 3780 ft 162 kts 44°
2026-05-05 08:24 45.69010 8.78481 4162 ft 173 kts 44°
2026-05-05 08:24 45.69879 8.79745 4481 ft 189 kts 44°
2026-05-05 08:24 45.70851 8.81151 4828 ft 206 kts 44°
2026-05-05 08:24 45.71845 8.82724 5176 ft 226 kts 58°
2026-05-05 08:25 45.72243 8.84939 5648 ft 243 kts 95°
2026-05-05 08:25 45.71662 8.87175 6372 ft 247 kts 124°
2026-05-05 08:25 45.70605 8.89162 6866 ft 263 kts 129°
2026-05-05 08:25 45.69398 8.91229 7339 ft 279 kts 130°
2026-05-05 08:26 45.68131 8.93390 8078 ft 286 kts 130°
2026-05-05 08:26 45.66885 8.95540 8898 ft 287 kts 130°
2026-05-05 08:26 45.65634 8.97720 9662 ft 290 kts 129°
2026-05-05 08:26 45.64352 8.99879 10373 ft 294 kts 133°
2026-05-05 08:27 45.62900 9.01926 10785 ft 308 kts 137°
2026-05-05 08:27 45.61281 9.04018 11093 ft 325 kts 138°
2026-05-05 08:27 45.59566 9.06183 11556 ft 335 kts 140°
2026-05-05 08:27 45.57809 9.08316 12235 ft 338 kts 140°
2026-05-05 08:28 45.56012 9.10486 12892 ft 341 kts 140°
2026-05-05 08:28 45.54206 9.12672 13491 ft 345 kts 140°
2026-05-05 08:28 45.52387 9.14879 14077 ft 349 kts 140°
2026-05-05 08:28 45.50538 9.17125 14652 ft 353 kts 141°
2026-05-05 08:29 45.48667 9.19400 15214 ft 357 kts 141°
2026-05-05 08:29 45.46770 9.21706 15763 ft 361 kts 141°
2026-05-05 08:29 45.44835 9.24058 16303 ft 365 kts 141°
2026-05-05 08:30 45.40953 9.28771 17370 ft 372 kts 141°
2026-05-05 08:30 45.38994 9.31146 17866 ft 376 kts 141°
2026-05-05 08:30 45.37012 9.33545 18354 ft 379 kts 141°
2026-05-05 08:30 45.34972 9.36015 18842 ft 383 kts 141°
2026-05-05 08:31 45.32958 9.38449 19310 ft 387 kts 141°
2026-05-05 08:31 45.30899 9.40935 19770 ft 391 kts 141°
2026-05-05 08:31 45.28826 9.43436 20220 ft 395 kts 141°
2026-05-05 08:31 45.26735 9.45956 20675 ft 398 kts 142°
2026-05-05 08:32 45.24624 9.48499 21162 ft 400 kts 142°
2026-05-05 08:32 45.22486 9.51070 21599 ft 403 kts 142°
2026-05-05 08:32 45.20333 9.53656 22012 ft 407 kts 142°
2026-05-05 08:32 45.18184 9.56234 22417 ft 410 kts 142°
2026-05-05 08:33 45.16002 9.58849 22815 ft 414 kts 142°
2026-05-05 08:33 45.13802 9.61484 23203 ft 417 kts 142°
2026-05-05 08:33 45.11573 9.64156 23592 ft 421 kts 142°
2026-05-05 08:33 45.09349 9.66820 23955 ft 424 kts 142°
2026-05-05 08:34 45.07112 9.69496 24302 ft 428 kts 142°
2026-05-05 08:34 45.04825 9.72226 24640 ft 431 kts 142°
2026-05-05 08:34 45.02518 9.74979 24979 ft 435 kts 141°
2026-05-05 08:34 45.00204 9.77737 25325 ft 438 kts 141°
2026-05-05 08:35 44.97892 9.80491 25672 ft 441 kts 141°
2026-05-05 08:35 44.95540 9.83289 26022 ft 443 kts 140°
2026-05-05 08:35 44.93173 9.86105 26361 ft 446 kts 140°
2026-05-05 08:35 44.90809 9.88916 26693 ft 449 kts 140°
2026-05-05 08:36 44.88400 9.91777 27018 ft 451 kts 140°
2026-05-05 08:36 44.86017 9.94600 27331 ft 454 kts 140°
2026-05-05 08:36 44.83580 9.97485 27643 ft 456 kts 140°
2026-05-05 08:36 44.81157 10.00349 27941 ft 459 kts 140°
2026-05-05 08:37 44.78731 10.03213 28232 ft 461 kts 140°
2026-05-05 08:37 44.76243 10.06146 28523 ft 464 kts 140°
2026-05-05 08:37 44.73798 10.09025 28804 ft 466 kts 140°
2026-05-05 08:37 44.71307 10.11956 29082 ft 468 kts 140°
2026-05-05 08:38 44.68790 10.14912 29362 ft 471 kts 140°
2026-05-05 08:38 44.66283 10.17854 29632 ft 473 kts 140°
2026-05-05 08:38 44.63777 10.20791 29894 ft 475 kts 140°
2026-05-05 08:38 44.61221 10.23783 30151 ft 477 kts 140°
2026-05-05 08:39 44.58683 10.26750 30397 ft 479 kts 140°
2026-05-05 08:39 44.56138 10.29723 30641 ft 482 kts 140°
2026-05-05 08:39 44.53554 10.32738 30883 ft 484 kts 140°
2026-05-05 08:39 44.50979 10.35738 31117 ft 486 kts 140°
2026-05-05 08:40 44.48366 10.38779 31353 ft 488 kts 140°
2026-05-05 08:40 44.45754 10.41814 31637 ft 488 kts 140°
2026-05-05 08:40 44.43159 10.44827 31962 ft 487 kts 140°
2026-05-05 08:40 44.40580 10.47817 32279 ft 487 kts 141°
2026-05-05 08:41 44.37980 10.50827 32583 ft 487 kts 140°
2026-05-05 08:41 44.35383 10.53831 32874 ft 487 kts 141°
2026-05-05 08:41 44.32764 10.56855 33161 ft 487 kts 141°
2026-05-05 08:41 44.30162 10.59855 33445 ft 487 kts 141°
2026-05-05 08:42 44.27554 10.62860 33726 ft 487 kts 140°
2026-05-05 08:42 44.24981 10.65918 34001 ft 487 kts 139°
2026-05-05 08:42 44.22578 10.69113 34255 ft 487 kts 135°
2026-05-05 08:42 44.20289 10.72571 34515 ft 486 kts 130°
2026-05-05 08:43 44.18150 10.76262 34796 ft 485 kts 126°
2026-05-05 08:43 44.16232 10.80051 35061 ft 484 kts 122°
2026-05-05 08:43 44.14410 10.83995 35299 ft 484 kts 121°
2026-05-05 08:43 44.12598 10.87967 35451 ft 487 kts 120°
2026-05-05 08:44 44.10799 10.91901 35554 ft 490 kts 120°
2026-05-05 08:44 44.08968 10.95891 35663 ft 493 kts 120°
2026-05-05 08:44 44.07116 10.99905 35788 ft 496 kts 120°
2026-05-05 08:44 44.05254 11.03926 35923 ft 498 kts 119°
2026-05-05 08:45 44.03370 11.07992 36070 ft 500 kts 119°
2026-05-05 08:45 44.01486 11.12053 36236 ft 501 kts 119°
2026-05-05 08:45 43.99592 11.16124 36416 ft 501 kts 119°
2026-05-05 08:45 43.97701 11.20184 36585 ft 502 kts 119°
2026-05-05 08:46 43.95814 11.24227 36742 ft 503 kts 119°
2026-05-05 08:46 43.93910 11.28298 36891 ft 504 kts 119°
2026-05-05 08:46 43.92021 11.32333 36977 ft 506 kts 119°
2026-05-05 08:47 43.88197 11.40476 36980 ft 506 kts 119°
2026-05-05 08:47 43.84363 11.48618 36983 ft 506 kts 119°
2026-05-05 08:48 43.80524 11.56748 36984 ft 506 kts 119°
2026-05-05 08:48 43.76667 11.64897 36985 ft 506 kts 119°
2026-05-05 08:49 43.72822 11.72998 36987 ft 507 kts 120°
2026-05-05 08:49 43.68961 11.81107 36989 ft 507 kts 120°
2026-05-05 08:50 43.65097 11.89199 36990 ft 506 kts 120°
2026-05-05 08:50 43.61223 11.97293 36998 ft 507 kts 120°
2026-05-05 08:51 43.57328 12.05405 37014 ft 507 kts 120°
2026-05-05 08:51 43.53453 12.13457 37031 ft 507 kts 120°
2026-05-05 08:52 43.49562 12.21518 37046 ft 507 kts 120°
2026-05-05 08:52 43.45652 12.29595 37055 ft 506 kts 120°
2026-05-05 08:53 43.41767 12.37600 37060 ft 506 kts 120°
2026-05-05 08:53 43.37862 12.45624 37063 ft 506 kts 120°
2026-05-05 08:54 43.33955 12.53632 37064 ft 506 kts 120°
2026-05-05 08:54 43.30055 12.61601 37064 ft 506 kts 120°
2026-05-05 08:55 43.26303 12.69256 37062 ft 507 kts 121°
2026-05-05 08:55 43.22332 12.77326 37063 ft 507 kts 121°
2026-05-05 08:56 43.18417 12.85265 37064 ft 507 kts 121°
2026-05-05 08:56 43.14447 12.93292 37064 ft 507 kts 121°
2026-05-05 08:57 43.10512 13.01220 37063 ft 507 kts 120°
2026-05-05 08:57 43.06542 13.09191 37060 ft 510 kts 120°
2026-05-05 08:58 43.02547 13.17194 37055 ft 512 kts 118°
2026-05-05 08:58 42.98519 13.25254 37054 ft 512 kts 118°
2026-05-05 08:59 42.94536 13.33216 37057 ft 511 kts 118°
2026-05-05 08:59 42.90547 13.41158 37059 ft 509 kts 118°
2026-05-05 09:00 42.86591 13.49007 37050 ft 507 kts 118°
2026-05-05 09:00 42.82603 13.56901 37048 ft 507 kts 117°
2026-05-05 09:01 42.78604 13.64796 37047 ft 506 kts 118°
2026-05-05 09:01 42.74605 13.72673 37044 ft 507 kts 118°
2026-05-05 09:02 42.70604 13.80533 37041 ft 508 kts 118°
2026-05-05 09:02 42.66595 13.88377 37040 ft 507 kts 118°
2026-05-05 09:03 42.62595 13.96190 37038 ft 508 kts 118°
2026-05-05 09:03 42.58569 14.04033 37039 ft 507 kts 118°
2026-05-05 09:04 42.54530 14.11883 37038 ft 508 kts 118°
2026-05-05 09:04 42.50501 14.19688 37039 ft 507 kts 118°
2026-05-05 09:05 42.46463 14.27491 37039 ft 507 kts 118°
2026-05-05 09:05 42.42388 14.35348 37040 ft 507 kts 118°
2026-05-05 09:06 42.38352 14.43107 37038 ft 507 kts 118°
2026-05-05 09:06 42.34282 14.50914 37039 ft 507 kts 118°
2026-05-05 09:07 42.30235 14.58654 37038 ft 507 kts 118°
2026-05-05 09:07 42.26160 14.66432 37037 ft 507 kts 119°
2026-05-05 09:08 42.22105 14.74149 37039 ft 508 kts 119°
2026-05-05 09:08 42.18026 14.81893 37038 ft 508 kts 120°
2026-05-05 09:09 42.13933 14.89636 37039 ft 508 kts 119°
2026-05-05 09:09 42.09818 14.97389 37039 ft 510 kts 118°
2026-05-05 09:10 42.05694 15.05137 37044 ft 510 kts 117°
2026-05-05 09:10 42.01574 15.12871 37052 ft 509 kts 116°
2026-05-05 09:11 41.97470 15.20585 37059 ft 509 kts 116°
2026-05-05 09:11 41.93376 15.28254 37061 ft 509 kts 116°
2026-05-05 09:12 41.89257 15.35939 37057 ft 509 kts 116°
2026-05-05 09:12 41.85183 15.43515 37061 ft 509 kts 116°
2026-05-05 09:13 41.81037 15.51208 37063 ft 509 kts 116°
2026-05-05 09:13 41.76897 15.58867 37063 ft 508 kts 116°
2026-05-05 09:14 41.72763 15.66502 37073 ft 510 kts 116°
2026-05-05 09:14 41.68621 15.74128 37083 ft 510 kts 117°
2026-05-05 09:15 41.64453 15.81782 37088 ft 510 kts 116°
2026-05-05 09:15 41.60283 15.89420 37092 ft 510 kts 116°
2026-05-05 09:16 41.56094 15.97074 37091 ft 510 kts 116°
2026-05-05 09:16 41.51935 16.04651 37091 ft 509 kts 116°
2026-05-05 09:17 39.82694 18.98317 37150 ft 504 kts 120°
2026-05-05 09:17 39.80873 19.01521 37133 ft 492 kts 118°
2026-05-05 09:18 39.78587 19.05607 37111 ft 485 kts 120°
2026-05-05 09:18 39.74789 19.12393 37106 ft 479 kts 121°
2026-05-05 09:19 39.70916 19.19308 37110 ft 472 kts 122°
2026-05-05 09:19 39.67078 19.26132 37114 ft 469 kts 122°
2026-05-05 09:20 39.63232 19.32953 37116 ft 468 kts 122°
2026-05-05 09:20 39.59417 19.39717 37117 ft 468 kts 122°
2026-05-05 09:21 39.55579 19.46514 37118 ft 468 kts 122°
2026-05-05 09:21 39.51723 19.53328 37118 ft 468 kts 122°
2026-05-05 09:22 39.47891 19.60084 37117 ft 468 kts 122°
2026-05-05 09:22 39.44046 19.66853 37118 ft 468 kts 123°
2026-05-05 09:23 39.40184 19.73634 37118 ft 469 kts 123°
2026-05-05 09:23 39.36347 19.80358 37117 ft 469 kts 123°
2026-05-05 09:24 39.32474 19.87129 37118 ft 469 kts 123°
2026-05-05 09:24 39.28608 19.93873 37118 ft 469 kts 123°
2026-05-05 09:25 39.24840 20.00434 37118 ft 469 kts 123°
2026-05-05 09:25 39.21042 20.07032 37118 ft 469 kts 123°
2026-05-05 09:26 39.17218 20.13663 37118 ft 469 kts 123°
2026-05-05 09:26 39.13365 20.20326 37119 ft 468 kts 123°
2026-05-05 09:27 39.09488 20.27071 37119 ft 469 kts 122°
2026-05-05 09:27 39.05670 20.33755 37126 ft 469 kts 122°
2026-05-05 09:28 39.01833 20.40457 37129 ft 470 kts 123°
2026-05-05 09:28 38.98048 20.47059 37136 ft 474 kts 124°
2026-05-05 09:29 38.94114 20.53888 37140 ft 477 kts 125°
2026-05-05 09:29 38.90161 20.60723 37145 ft 478 kts 126°
2026-05-05 09:30 38.86225 20.67506 37145 ft 476 kts 128°
2026-05-05 09:30 38.82248 20.74252 37146 ft 476 kts 128°
2026-05-05 09:31 38.78249 20.81010 37146 ft 476 kts 128°
2026-05-05 09:31 38.74265 20.87735 37146 ft 476 kts 128°
2026-05-05 09:32 38.70270 20.94483 37146 ft 475 kts 129°
2026-05-05 09:32 38.66285 21.01202 37148 ft 471 kts 130°
2026-05-05 09:33 38.62355 21.07805 37148 ft 466 kts 130°
2026-05-05 09:33 38.58453 21.14339 37148 ft 460 kts 131°
2026-05-05 09:34 38.54578 21.20807 37146 ft 459 kts 131°
2026-05-05 09:34 38.50718 21.27240 37146 ft 459 kts 131°
2026-05-05 09:35 38.46851 21.33680 37146 ft 458 kts 131°
2026-05-05 09:35 38.41046 21.43325 36887 ft 458 kts 131°
2026-05-05 09:36 38.39119 21.46522 36635 ft 456 kts 131°
2026-05-05 09:36 38.37194 21.49711 36385 ft 453 kts 131°
2026-05-05 09:36 38.35263 21.52907 36132 ft 450 kts 131°
2026-05-05 09:36 38.33371 21.56039 35880 ft 449 kts 131°
2026-05-05 09:37 38.31488 21.59148 35521 ft 449 kts 131°
2026-05-05 09:37 38.29577 21.62301 35022 ft 449 kts 131°
2026-05-05 09:37 38.27690 21.65408 34420 ft 450 kts 132°
2026-05-05 09:37 38.25782 21.68550 33750 ft 451 kts 132°
2026-05-05 09:38 38.23881 21.71678 33063 ft 452 kts 131°
2026-05-05 09:38 38.21926 21.74891 32353 ft 453 kts 131°
2026-05-05 09:38 38.20021 21.78015 31639 ft 455 kts 131°
2026-05-05 09:38 38.18076 21.81208 31026 ft 452 kts 131°
2026-05-05 09:39 38.16166 21.84344 30449 ft 449 kts 131°
2026-05-05 09:39 38.14521 21.87701 29429 ft 462 kts 118°
2026-05-05 09:39 38.13460 21.91600 28530 ft 468 kts 108°
2026-05-05 09:39 38.12666 21.95601 28145 ft 460 kts 107°
2026-05-05 09:40 38.11929 21.99487 27776 ft 450 kts 107°
2026-05-05 09:40 38.11191 22.03322 27237 ft 446 kts 107°
2026-05-05 09:40 38.10449 22.07091 26618 ft 443 kts 107°
2026-05-05 09:40 38.09688 22.10891 25955 ft 441 kts 107°
2026-05-05 09:41 38.08931 22.14623 25286 ft 440 kts 107°
2026-05-05 09:41 38.08170 22.18358 24606 ft 438 kts 108°
2026-05-05 09:41 38.07395 22.22137 23917 ft 436 kts 107°
2026-05-05 09:41 38.06646 22.25790 23456 ft 428 kts 108°
2026-05-05 09:42 38.05899 22.29424 22936 ft 423 kts 108°
2026-05-05 09:42 38.05152 22.33047 22351 ft 419 kts 108°
2026-05-05 09:42 38.04423 22.36573 21845 ft 414 kts 108°
2026-05-05 09:42 38.03701 22.40064 21381 ft 408 kts 108°
2026-05-05 09:43 38.02985 22.43518 20936 ft 402 kts 108°
2026-05-05 09:43 38.02283 22.46897 20510 ft 396 kts 108°
2026-05-05 09:43 38.01586 22.50243 20091 ft 391 kts 108°
2026-05-05 09:43 38.00888 22.53594 19676 ft 386 kts 108°
2026-05-05 09:44 38.00212 22.56826 19281 ft 381 kts 108°
2026-05-05 09:44 37.99538 22.60048 18885 ft 376 kts 108°
2026-05-05 09:44 37.98867 22.63253 18499 ft 371 kts 108°
2026-05-05 09:44 37.98210 22.66386 18128 ft 365 kts 108°
2026-05-05 09:45 37.97590 22.69466 17709 ft 363 kts 107°
2026-05-05 09:45 37.96985 22.72571 17169 ft 364 kts 107°
2026-05-05 09:45 37.96379 22.75694 16572 ft 366 kts 107°
2026-05-05 09:45 37.95778 22.78785 16038 ft 365 kts 107°
2026-05-05 09:46 37.95169 22.81908 15542 ft 363 kts 107°
2026-05-05 09:46 37.94567 22.84978 15050 ft 362 kts 107°
2026-05-05 09:46 37.93957 22.88083 14549 ft 361 kts 106°
2026-05-05 09:46 37.93353 22.91150 14059 ft 359 kts 106°
2026-05-05 09:47 37.92755 22.94179 13583 ft 358 kts 105°
2026-05-05 09:47 37.92152 22.97230 13111 ft 356 kts 105°
2026-05-05 09:47 37.91547 23.00291 12648 ft 354 kts 105°
2026-05-05 09:47 37.90958 23.03267 12206 ft 352 kts 104°
2026-05-05 09:48 37.90216 23.06242 11745 ft 349 kts 114°
2026-05-05 09:48 37.89146 23.08976 11298 ft 346 kts 118°
2026-05-05 09:48 37.88034 23.11629 10921 ft 341 kts 118°
2026-05-05 09:48 37.86914 23.14273 10667 ft 333 kts 119°
2026-05-05 09:49 37.85833 23.16821 10422 ft 325 kts 119°
2026-05-05 09:49 37.84778 23.19305 10288 ft 314 kts 119°
2026-05-05 09:49 37.83762 23.21698 10160 ft 304 kts 119°
2026-05-05 09:49 37.82772 23.24028 9942 ft 298 kts 119°
2026-05-05 09:50 37.81804 23.26307 9669 ft 294 kts 119°
2026-05-05 09:50 37.80825 23.28607 9394 ft 291 kts 119°
2026-05-05 09:50 37.79868 23.30855 9127 ft 291 kts 119°
2026-05-05 09:50 37.78912 23.33102 8859 ft 290 kts 119°
2026-05-05 09:51 37.77962 23.35329 8594 ft 289 kts 119°
2026-05-05 09:51 37.77258 23.37730 8288 ft 289 kts 98°
2026-05-05 09:51 37.77146 23.40241 7981 ft 288 kts 90°
2026-05-05 09:51 37.77175 23.42780 7663 ft 286 kts 89°
2026-05-05 09:52 37.77187 23.45300 7347 ft 284 kts 91°
2026-05-05 09:52 37.77159 23.47793 7035 ft 283 kts 92°
2026-05-05 09:52 37.77103 23.50265 6725 ft 281 kts 92°
2026-05-05 09:52 37.77029 23.52723 6417 ft 279 kts 93°
2026-05-05 09:53 37.76947 23.55190 6107 ft 278 kts 93°
2026-05-05 09:53 37.76860 23.57632 5801 ft 276 kts 92°
2026-05-05 09:53 37.76774 23.60043 5499 ft 275 kts 92°
2026-05-05 09:53 37.76688 23.62461 5196 ft 273 kts 92°
2026-05-05 09:54 37.76608 23.64842 4905 ft 272 kts 91°
2026-05-05 09:54 37.76559 23.67211 4645 ft 269 kts 91°
2026-05-05 09:54 37.76521 23.69559 4471 ft 262 kts 90°
2026-05-05 09:54 37.76491 23.71821 4307 ft 255 kts 90°
2026-05-05 09:55 37.76472 23.74040 4141 ft 249 kts 87°
2026-05-05 09:55 37.76867 23.76125 3951 ft 243 kts 63°
2026-05-05 09:55 37.77755 23.77909 3778 ft 236 kts 49°
2026-05-05 09:55 37.78905 23.79355 3537 ft 228 kts 39°
2026-05-05 09:56 37.80142 23.80548 3233 ft 220 kts 34°
2026-05-05 09:56 37.81359 23.81650 2948 ft 214 kts 35°
2026-05-05 09:56 37.82542 23.82744 2669 ft 208 kts 35°
2026-05-05 09:56 37.83684 23.83826 2397 ft 203 kts 36°
2026-05-05 09:57 37.84782 23.84875 2231 ft 190 kts 36°
2026-05-05 09:57 37.85802 23.85852 1947 ft 182 kts 36°
2026-05-05 09:57 37.86785 23.86790 1677 ft 174 kts 37°
2026-05-05 09:57 37.87732 23.87690 1457 ft 164 kts 37°
2026-05-05 09:58 37.88620 23.88538 1216 ft 157 kts 35°
2026-05-05 09:58 37.89470 23.89346 1005 ft 148 kts 35°
2026-05-05 09:58 37.90261 23.90090 839 ft 141 kts 34°
2026-05-05 09:58 37.91050 23.90844 634 ft 140 kts 36°
2026-05-05 09:59 37.91825 23.91580 461 ft 138 kts 35°
2026-05-05 09:59 37.92586 23.92307 290 ft 136 kts 35°
2026-05-05 09:59 37.93275 23.92960 287 ft 107 kts 37°
2026-05-05 09:59 37.93789 23.93451 287 ft 79 kts 36°
2026-05-05 10:00 37.94180 23.93818 287 ft 60 kts 38°
2026-05-05 10:00 37.94471 23.94096 287 ft 45 kts 37°
2026-05-05 10:00 37.94685 23.94301 287 ft 32 kts 36°
2026-05-05 10:00 37.94788 23.94428 287 ft 16 kts 94°
2026-05-05 10:01 37.94728 23.94550 287 ft 17 kts 126°
2026-05-05 10:01 37.94645 23.94690 287 ft 21 kts 128°
2026-05-05 10:01 37.94553 23.94845 287 ft 21 kts 126°
2026-05-05 10:01 37.94463 23.94998 287 ft 21 kts 127°
2026-05-05 10:02 37.94376 23.95145 288 ft 20 kts 126°
2026-05-05 10:02 37.94289 23.95271 287 ft 15 kts 163°
2026-05-05 10:02 37.94213 23.95227 287 ft 1 kts 217°
2026-05-05 10:02 37.94209 23.95223 287 ft 0 kts 217°